Simultaneous Nadir Overpasses (SNOs) Predictions

Prediction of SNOs between GOES-16 and NOAA-20 Satellite Orbit:

Table of predicted SNOs for the next 14.0 days since TLE Epoch: 7/1/2023
Index Date Time (GOES-16) GOES-16 Lat,Lon NOAA-20 Lat,Lon Distance(km) Time Diff (sec)
1 07/02/2023 18:27:43 0.02, -75.20 -0.08, -75.79 66.25 80
2 07/03/2023 18:11:38 0.02, -75.20 0.92, -71.25 450.12 80
3 07/05/2023 06:30:46 -0.02, -75.21 0.26, -76.53 150.13 80
4 07/06/2023 06:14:42 -0.01, -75.21 -0.74, -72.00 366.61 80
5 07/07/2023 18:33:59 0.02, -75.22 -0.43, -77.31 237.64 80
6 07/08/2023 18:17:55 0.01, -75.23 0.57, -72.78 279.75 80
7 07/10/2023 06:37:03 -0.02, -75.26 0.60, -78.06 318.85 80
8 07/11/2023 06:20:59 -0.01, -75.27 -0.40, -73.53 198.81 80
9 07/12/2023 18:40:16 0.02, -75.29 -0.77, -78.84 404.42 80
10 07/13/2023 18:24:11 0.02, -75.31 0.23, -74.31 113.50 80
